TimeCDT,TemperatureF,Dew PointF,Humidity,Sea Level PressureIn,VisibilityMPH,Wind Direction,Wind SpeedMPH,Gust SpeedMPH,PrecipitationIn,Events,Conditions,WindDirDegrees,DateUTC
12:15 AM,74.5,68.5,82,30.14,10.0,Calm,Calm,-,N/A,,Clear,0,2013-05-25 05:15:00
12:35 AM,74.5,69.1,83,30.14,10.0,Calm,Calm,-,N/A,,Clear,0,2013-05-25 05:35:00
12:55 AM,73.2,68.7,86,30.14,10.0,Calm,Calm,-,N/A,,Clear,0,2013-05-25 05:55:00
1:15 AM,73.8,69.1,85,30.13,7.0,North,3.5,-,N/A,,Scattered Clouds,350,2013-05-25 06:15:00
1:35 AM,74.3,69.6,85,30.13,10.0,NE,3.5,-,N/A,,Scattered Clouds,40,2013-05-25 06:35:00
1:55 AM,74.5,69.8,85,30.12,7.0,Calm,Calm,-,N/A,,Mostly Cloudy,0,2013-05-25 06:55:00
2:15 AM,74.1,69.4,85,30.12,7.0,NNE,3.5,-,N/A,,Scattered Clouds,20,2013-05-25 07:15:00
2:35 AM,74.8,68.9,82,30.12,10.0,NNE,5.8,-,N/A,,Scattered Clouds,30,2013-05-25 07:35:00
2:55 AM,74.7,68.2,80,30.12,7.0,NNE,6.9,-,N/A,,Clear,30,2013-05-25 07:55:00
3:15 AM,74.8,68.0,79,30.12,10.0,NE,4.6,-,N/A,,Mostly Cloudy,50,2013-05-25 08:15:00
3:35 AM,74.5,68.0,80,30.12,10.0,NE,5.8,-,N/A,,Overcast,50,2013-05-25 08:35:00
3:55 AM,74.3,67.5,79,30.13,10.0,NE,4.6,-,N/A,,Scattered Clouds,50,2013-05-25 08:55:00
4:15 AM,73.8,66.9,79,30.13,10.0,NE,4.6,-,N/A,,Mostly Cloudy,40,2013-05-25 09:15:00
4:35 AM,73.6,67.1,80,30.14,10.0,Calm,Calm,-,N/A,,Mostly Cloudy,0,2013-05-25 09:35:00
4:55 AM,74.3,67.1,78,30.15,10.0,Calm,Calm,-,N/A,,Overcast,0,2013-05-25 09:55:00
5:15 AM,73.0,66.9,81,30.14,10.0,Calm,Calm,-,N/A,,Overcast,0,2013-05-25 10:15:00
5:35 AM,73.4,66.2,78,30.14,10.0,NE,4.6,-,N/A,,Overcast,50,2013-05-25 10:35:00
5:50 AM,73.4,64.4,73,30.15,7.0,NE,6.9,-,N/A,,Mostly Cloudy,40,2013-05-25 10:50:00
5:55 AM,73.0,65.3,77,30.15,10.0,NE,4.6,-,N/A,,Mostly Cloudy,40,2013-05-25 10:55:00
6:50 AM,73.4,64.4,73,30.17,7.0,NE,9.2,-,N/A,,Mostly Cloudy,40,2013-05-25 11:50:00
7:50 AM,75.2,64.4,69,30.19,7.0,NE,11.5,-,N/A,,Scattered Clouds,40,2013-05-25 12:50:00
8:50 AM,80.6,64.4,58,30.20,7.0,ENE,11.5,-,N/A,,Clear,60,2013-05-25 13:50:00
9:55 AM,82.4,62.6,51,30.20,7.0,ENE,11.5,-,N/A,,Clear,60,2013-05-25 14:55:00
10:50 AM,84.2,59.0,42,30.21,7.0,ENE,13.8,-,N/A,,Clear,70,2013-05-25 15:50:00
11:50 AM,84.2,62.6,48,30.21,7.0,ENE,11.5,-,N/A,,Clear,70,2013-05-25 16:50:00
12:50 PM,86.0,62.6,45,30.20,7.0,East,10.4,-,N/A,,Clear,90,2013-05-25 17:50:00
1:50 PM,84.2,62.6,48,30.19,7.0,East,11.5,-,N/A,,Clear,100,2013-05-25 18:50:00
2:50 PM,84.2,62.6,48,30.17,7.0,ESE,11.5,-,N/A,,Mostly Cloudy,120,2013-05-25 19:50:00
3:50 PM,84.2,62.6,48,30.17,7.0,East,11.5,-,N/A,,Scattered Clouds,100,2013-05-25 20:50:00
4:50 PM,84.2,62.6,48,30.16,7.0,East,11.5,-,N/A,,Scattered Clouds,100,2013-05-25 21:50:00
5:50 PM,82.4,60.8,48,30.15,7.0,ESE,11.5,-,N/A,,Partly Cloudy,110,2013-05-25 22:50:00
6:50 PM,82.4,60.8,48,30.14,7.0,East,11.5,-,N/A,,Scattered Clouds,100,2013-05-25 23:50:00
7:15 PM,79.2,62.8,57,30.13,10.0,East,4.6,-,N/A,,Clear,90,2013-05-26 00:15:00
7:35 PM,78.4,61.7,56,30.13,10.0,East,6.9,-,N/A,,Clear,90,2013-05-26 00:35:00
7:55 PM,77.5,61.9,58,30.13,10.0,East,4.6,-,N/A,,Clear,100,2013-05-26 00:55:00
8:15 PM,76.1,62.6,63,30.13,10.0,East,4.6,-,N/A,,Clear,100,2013-05-26 01:15:00
8:35 PM,75.4,62.6,64,30.14,10.0,East,3.5,-,N/A,,Clear,100,2013-05-26 01:35:00
8:55 PM,74.7,62.6,66,30.14,10.0,East,5.8,-,N/A,,Clear,80,2013-05-26 01:55:00
9:15 PM,74.7,62.4,66,30.14,10.0,East,4.6,-,N/A,,Clear,100,2013-05-26 02:15:00
9:35 PM,74.3,62.6,67,30.15,10.0,East,3.5,-,N/A,,Clear,80,2013-05-26 02:35:00
9:55 PM,74.5,63.1,68,30.15,10.0,ENE,3.5,-,N/A,,Clear,70,2013-05-26 02:55:00
10:15 PM,74.7,65.3,73,30.16,10.0,ENE,4.6,-,N/A,,Clear,70,2013-05-26 03:15:00
10:35 PM,75.2,66.2,73,30.16,10.0,ENE,5.8,-,N/A,,Clear,70,2013-05-26 03:35:00
10:55 PM,74.8,66.2,74,30.16,10.0,East,6.9,-,N/A,,Clear,80,2013-05-26 03:55:00
11:15 PM,74.8,66.2,74,30.15,10.0,ESE,6.9,-,N/A,,Clear,110,2013-05-26 04:15:00
11:35 PM,73.8,66.2,77,30.15,10.0,East,4.6,-,N/A,,Clear,100,2013-05-26 04:35:00
11:55 PM,73.8,65.8,76,30.15,10.0,Calm,Calm,-,N/A,,Clear,0,2013-05-26 04:55:00